Location: Mason
(37.5237°N, 89.2543°W)
Time: 21:29:32
(UTC+00:00)

SL-4 R/B - Visible Passes

Search period start: 27 June 2022 00:00
Search period end: 07 July 2022 00:00
Orbit: 426 x 654 km, 51.6° (Epoch: 27 June)

Date Brightness Start Highest point End Pass type
(mag) Time Alt. Az. Time Alt. Az. Time Alt. Az.
27 Jun 3.2 07:39:14 32° E 07:39:14 32° E 07:41:36 10° ENE visible
27 Jun 3.6 09:14:40 11° W 09:17:34 25° NNW 09:20:54 10° NNE visible
28 Jun 3.2 07:30:41 34° ENE 07:30:41 34° ENE 07:32:59 10° NE visible
28 Jun 3.9 09:06:08 10° WNW 09:09:02 21° NNW 09:12:05 10° NNE visible
29 Jun 3.3 07:22:05 33° NE 07:22:05 33° NE 07:24:20 10° NE visible
29 Jun 4.2 08:57:53 10° WNW 09:00:30 18° NNW 09:03:16 10° NNE visible
30 Jun 3.4 07:13:25 32° NE 07:13:25 32° NE 07:15:38 10° NE visible
30 Jun 4.4 08:49:40 10° WNW 08:52:00 16° NNW 08:54:26 10° NNE visible
01 Jul 3.6 07:04:44 29° NNE 07:04:44 29° NNE 07:06:54 10° NE visible
01 Jul 4.5 08:41:29 10° NW 08:43:30 14° NNW 08:45:34 10° NNE visible
02 Jul 3.8 06:56:00 27° NNE 06:56:00 27° NNE 06:58:08 10° NE visible
02 Jul 4.6 08:33:22 10° NW 08:35:01 12° NNW 08:36:41 10° NNE visible
03 Jul 4.0 06:47:11 24° N 06:47:11 24° N 06:49:21 10° NNE visible
03 Jul 4.8 08:25:17 10° NNW 08:26:31 11° N 08:27:47 10° N visible
03 Jul 4.9 10:05:44 10° NNW 10:07:27 12° NNE 10:09:13 10° NE visible
04 Jul 4.1 06:38:19 22° N 06:38:19 22° N 06:40:32 10° NNE visible
04 Jul 5.0 08:17:17 10° NNW 08:18:02 10° N 08:18:49 10° N visible
04 Jul 4.9 09:56:58 10° NNW 09:58:57 13° NNE 10:01:00 10° NE visible
05 Jul 4.3 06:29:22 20° NNW 06:29:22 20° NNW 06:31:42 10° NNE visible
05 Jul 4.9 09:48:10 10° NNW 09:50:26 15° NNE 09:52:47 10° NE visible
06 Jul 4.4 06:20:19 17° NNW 06:20:20 17° NNW 06:22:49 10° NNE visible
06 Jul 4.8 09:39:21 10° NNW 09:41:53 16° NNE 09:44:32 10° ENE visible
